SCP
0 0 0 0 0 0 0 0 0 0 0 0 0 0 0 0 0 0 0 0 0 0 0 0 0 0 0 0 0 0 0 0 0 -0 -0 -0 0 0 0 0 0 0 0
0 0 0 0 0 0 0 0 0 0 0 0 0 0 0 0 0 0 0 0 0 0 0 0 0 0 0 0 0 0 0 0 0 0 0 0 0 0 0 0 0 0 0
0 0 0 0 0 0 0 0 0 0 0 0 0 0 0 0 0 0 0 0 0 0 0 0 0 0 0 0 0 0 0 0 0 0 0 0 0 0 0 0 0 0 0
0 0 0 0 0 0 0 0 0 0 0 0 0 0 0 0 0 0 0 0 0 0 0 0 0 0 0 0 0 0 0 0 0 0 0 0 0 0 -0 0 0 0 0
0 0 0 0 0 0 0 0 0 0 0 0 0 0 0 0 0 0 0 0 0 0 0 0 0 0 0 0 0 0 0 0 0 0 0 0 0 0 0 0 0 -0 0
0 0 0 0 0 0 0 0 0 0 0 0 0 0 0 0 0 0 0 0 0 0 0 0 0 0 0 0 0 0 0 0 0 0 0 0 0 0 0 0 0 0 0
0 0 0 0 0 0 0 0 0 0 0 0 0 0 0 0 0 0 0 0 0 0 0 0 0 0 0 0 0 0 0 0 0 0 0 0 0 0 0 0 0 0 0
0 0 0 0 0 0 0 0 0 0 0 0 0 0 0 0 0 0 0 0 0 0 0 0 0 0 0 0 0 0 0 0 0 0 0 0 -0 -0 -0 -0 -0 0 0
0 0 0 0 0 0 -0 0 0 0 0 0 0 0 0 0 0 0 0 0 0 0 0 0 0 0 0 0 0 0 0 0 0 0 0 0 0 0 -0 -0 -0 -0 -0
0 0 0 0 0 0 0 0 0 0 0 0 0 0 0 0 0 0 0 0 0 0 0 0 0 0 0 0 0 0 0 0 0 0 0 0 0 0 0 0 -0 0 -0
0 0 0 0 0 0 0 0 0 0 0 0 0 0 0 0 0 0 0 0 0 0 0 0 0 -0 -0 -0 0 0 0 0 0 0 0 0 0 0 0 0 0 0 0
0 0 0 0 0 0 0 0 0 0 0 0 0 0 0 0 0 0 0 0 0 0 0 0 -0 -0 -0 -0 -0 -0 -0 0 0 0 -0 -0 -0 -0 -0 0 0 0 0
0 0 0 0 0 0 0 0 0 0 0 0 0 0 0 0 0 0 0 0 0 0 0 0 -0 -0 -0 -0 -0 -0 -0 -0 -0 -0 -0 -0 -0 -0 0 -0 -0 0 0
0 0 0 0 0 0 0 0 0 0 0 0 0 0 0 0 0 0 -0 -0 -0 0 0 -0 -0 -0 -0 -0 -0 -0 -0 -0 -0 -0 -0 -0 -0 -0 0 0 0 0 0
0 0 0 0 0 0 0 0 0 0 0 0 0 0 0 0 0 0 0 0 0 0 0 -0 -0 -0 -0 -0 -0 -0 -0 -0 0 0 0 -0 -0 -0 0 0 0 0 0
0 0 0 0 0 0 0 0 0 0 0 0 0 0 0 0 0 0 0 0 0 0 0 -0 -0 -0 -0 -0 -0 -0 -0 0 0 0 0 0 -0 -0 0 0 0 0 0
0 0 0 0 0 0 0 0 0 0 0 0 0 0 0 0 0 0 0 0 0 0 0 0 0 -0 -0 -0 -0 -0 -0 0 0 0 0 0 0 0 0 0 0 0 0
0 0 0 0 0 0 0 0 0 0 0 0 0 0 0 0 0 0 0 0 0 0 0 0 0 0 0 -0 -0 -0 0 0 0 0 0 0 0 0 0 0 0 0 0
0 0 0 0 0 0 0 0 0 0 0 0 0 0 0 0 0 0 0 0 0 0 0 0 0 0 0 0 0 0 0 0 0 0 0 0 0 0 0 0 0 0 0
0 0 0 0 0 0 0 0 0 0 0 0 0 0 0 0 0 0 0 0 0 0 0 0 0 0 0 0 0 0 0 0 0 0 0 0 0 0 0 0 0 0 0
0 0 0 0 0 0 0 0 0 0 0 0 0 0 0 0 0 0 0 0 0 0 0 0 0 0 0 0 0 0 0 0 0 0 0 0 0 0 0 0 0 0 0
0 0 0 0 0 0 0 0 0 0 0 0 0 0 0 0 0 0 0 0 0 0 0 0 0 0 0 0 0 0 0 0 0 0 0 0 0 -0 -0 -0 0 0 0
0 0 0 0 0 0 0 0 0 0 0 0 0 0 0 0 0 0 0 0 0 0 0 0 0 0 0 0 0 0 0 0 0 0 0 0 0 -0 -0 -0 0 0 0
0 0 0 0 0 0 0 0 0 0 0 0 0 0 0 0 0 0 0 0 0 0 0 0 0 0 0 0 0 0 0 0 0 0 0 0 0 -0 -0 -0 0 0 0
0 0 0 0 0 0 0 0 0 0 0 0 0 0 0 0 0 0 0 0 0 0 0 0 0 0 0 0 0 0 0 0 0 0 0 0 0 -0 -0 -0 0 0 0
0 0 0 0 0 0 0 0 0 0 0 0 0 0 0 0 0 0 0 0 0 0 0 0 0 0 0 0 0 0 0 0 0 0 0 0 0 -0 -0 -0 0 -0 0
Wind_Speed_500mb
26 17 11 6 3 6 7 11 14 15 18 20 22 23 23 20 19 19 21 26 35 41 46 43 42 42 42 45 49 55 58 61 72 76 74 67 55 47 34 26 18 24 24
34 22 13 7 3 3 7 8 8 10 12 16 19 18 17 20 17 17 20 21 22 24 27 29 30 29 29 30 33 36 36 35 43 44 46 38 43 33 20 23 26 26 24
39 27 18 12 11 7 5 6 7 6 7 9 7 9 10 8 6 7 8 11 15 17 19 20 22 23 24 25 26 28 30 27 26 28 20 16 16 59 38 34 38 36 40
33 26 20 17 14 16 16 13 12 11 11 10 6 7 8 4 4 9 13 14 16 18 19 21 23 24 26 25 26 27 28 29 28 17 16 18 30 22 41 48 59 55 47
39 33 25 20 20 19 18 18 16 16 16 13 11 8 9 13 15 14 13 14 16 18 20 22 22 24 26 27 27 27 30 32 33 35 30 18 15 16 26 66 73 68 51
44 35 27 21 21 21 20 20 17 18 17 16 15 13 13 14 11 13 13 16 17 19 22 27 28 27 28 28 25 25 28 31 33 34 35 38 29 30 28 45 70 77 74
55 45 33 29 22 19 19 20 18 19 18 19 21 20 16 16 17 19 19 17 17 19 22 27 28 30 33 30 26 26 31 35 35 35 35 35 32 31 34 41 53 62 88
58 45 38 26 20 17 15 16 17 17 16 16 21 21 16 15 17 19 19 20 21 21 23 27 29 33 34 33 32 29 35 37 37 38 39 41 41 37 37 38 48 65 56
59 52 42 28 21 17 13 9 11 14 14 15 19 21 20 18 20 23 17 19 21 19 19 25 31 36 36 35 32 33 33 37 40 40 40 42 44 43 41 38 37 39 46
60 50 39 31 27 22 16 13 7 10 13 12 14 18 17 17 20 25 20 18 17 14 19 24 31 36 37 37 39 37 35 39 42 45 43 44 46 45 43 41 39 42 53
62 52 41 33 27 20 18 15 9 2 8 8 10 13 13 14 18 24 26 21 15 15 19 23 30 35 38 38 38 39 42 44 45 45 47 47 48 49 50 49 49 53 58
58 48 44 43 36 26 21 17 6 1 1 4 1 8 7 10 16 22 27 21 14 16 21 27 33 38 40 43 43 44 45 47 49 50 52 50 49 50 51 56 59 65 69
60 46 42 39 33 30 24 19 11 3 5 7 3 3 5 8 16 22 28 23 17 19 25 30 34 39 42 43 45 47 47 48 49 51 53 54 52 53 53 56 61 69 73
61 65 43 42 30 22 19 17 12 2 5 8 6 4 5 8 15 20 25 27 21 24 30 34 39 42 42 45 48 49 49 49 49 51 55 56 56 53 52 54 62 69 78
56 47 48 34 32 21 15 13 8 4 8 8 8 6 9 11 14 17 20 23 24 22 29 35 39 43 47 50 53 54 53 53 54 54 58 60 59 54 47 52 62 69 80
55 48 40 34 25 24 13 14 13 7 11 9 9 10 14 14 14 12 13 15 19 22 27 34 38 40 45 52 55 59 59 56 56 58 59 63 61 62 57 53 58 62 74
46 38 40 29 19 11 8 13 12 7 7 8 9 9 11 14 14 10 11 11 16 20 24 30 36 38 43 49 56 60 62 59 57 57 60 68 68 64 65 61 65 68 71
41 41 25 19 19 12 9 16 12 8 8 10 8 4 10 12 10 11 9 13 18 21 24 26 33 40 41 44 51 56 59 62 60 61 61 69 77 75 71 67 70 71 75
35 23 19 20 20 14 13 15 11 8 9 4 2 4 14 11 8 9 9 14 23 21 24 27 31 37 41 43 47 54 61 62 64 62 61 67 78 80 73 68 70 70 75
28 26 23 19 15 8 13 14 9 5 4 5 4 6 8 14 9 10 14 18 22 25 26 29 32 36 43 46 44 50 60 64 65 64 64 65 75 81 73 61 64 67 73
18 15 14 10 6 10 16 10 7 8 10 10 13 14 14 12 13 19 23 25 25 26 29 35 37 38 42 48 45 47 56 60 65 64 65 66 76 81 72 55 54 56 64
13 12 12 9 7 6 6 7 7 8 9 13 17 20 23 22 24 29 32 32 31 30 35 42 40 40 40 42 42 44 50 54 59 64 59 64 75 78 70 57 50 53 55
17 15 15 12 10 9 13 18 16 17 19 21 25 26 28 27 31 37 40 43 37 39 42 44 40 39 39 40 39 42 48 51 54 58 54 58 70 75 74 61 51 49 52
13 15 14 16 19 19 23 32 30 28 33 37 36 34 37 38 39 40 42 41 38 37 40 36 35 36 43 43 38 43 45 50 53 55 51 54 64 68 72 69 54 48 50
20 21 20 23 25 18 24 27 32 35 41 46 47 48 51 48 48 48 44 38 34 32 30 33 40 45 41 34 41 43 45 49 52 55 49 54 62 69 76 77 64 50 51
19 22 26 27 22 26 32 35 40 45 50 47 54 57 58 60 61 61 53 35 27 31 32 37 41 35 37 42 42 42 43 45 48 52 48 52 55 59 70 74 74 57 52
Wind_Direction_500mb
158 165 168 154 127 152 174 181 188 193 209 215 221 228 236 245 259 272 283 289 282 286 281 284 287 291 292 292 293 291 293 293 292 295 292 291 288 279 270 278 282 283 285
155 145 133 131 159 88 76 97 132 157 190 214 224 228 241 250 261 276 281 292 297 300 301 305 310 315 314 310 308 308 308 312 311 318 319 317 308 284 249 260 277 284 284
164 158 142 119 93 100 86 84 93 114 146 176 208 219 240 253 266 303 321 332 335 337 337 337 333 333 333 333 334 332 333 337 336 330 338 328 311 312 310 288 279 280 278
168 157 146 124 103 93 91 98 99 95 104 111 167 184 197 189 30 12 15 14 15 18 20 21 20 17 16 13 11 6 2 356 356 7 340 311 296 317 311 296 301 302 296
170 156 144 127 110 98 96 96 100 100 94 94 93 90 84 72 62 56 41 40 38 37 34 30 27 25 25 29 33 32 25 20 14 7 3 355 327 289 303 306 311 312 310
165 152 144 137 125 108 98 91 89 89 77 70 67 65 69 71 60 53 41 35 32 33 30 24 20 19 17 19 16 16 12 12 9 5 3 1 357 338 328 312 318 319 320
162 156 162 156 139 119 112 106 92 88 73 55 47 44 45 45 40 37 33 31 29 30 30 28 26 21 18 16 11 8 7 9 8 4 358 354 349 337 329 323 321 315 319
161 161 163 157 139 124 124 117 102 79 66 49 38 33 33 38 31 28 32 31 27 30 26 24 25 23 21 17 11 8 0 358 356 357 354 353 348 344 336 326 324 324 319
164 166 163 156 143 132 132 121 98 77 52 42 32 29 35 32 28 25 25 23 12 16 13 19 16 15 12 10 11 6 360 356 352 349 349 348 347 346 345 336 325 318 312
168 164 160 151 152 141 137 144 114 72 44 23 25 23 36 25 26 17 19 13 10 7 9 11 7 7 7 7 6 4 0 356 355 349 345 344 342 343 340 335 326 319 311
167 163 158 156 154 145 136 151 170 344 16 348 357 8 29 22 14 12 16 7 11 5 12 8 1 4 5 5 5 1 359 357 353 348 344 340 339 339 339 337 330 319 313
161 155 154 161 162 159 148 159 165 99 343 142 254 359 22 15 4 8 9 20 24 17 14 8 1 2 3 1 3 1 357 351 349 348 345 339 336 335 337 337 330 328 322
156 161 160 166 168 159 154 160 167 183 192 183 219 327 358 358 360 3 12 22 28 29 21 12 9 8 3 1 1 356 353 349 348 346 342 339 332 330 336 332 327 325 320
166 156 161 172 170 174 164 162 175 174 216 210 246 286 330 342 358 1 16 29 39 42 28 21 18 14 7 3 0 356 351 347 346 344 341 339 337 328 329 322 323 323 321
162 163 173 176 164 170 173 183 194 199 207 216 233 283 326 338 351 359 11 26 32 31 25 22 19 16 11 6 2 358 352 347 344 344 344 342 338 329 315 317 318 320 320
163 169 170 180 180 171 182 187 173 180 192 223 273 307 320 324 336 353 10 26 31 24 19 17 15 10 6 4 1 359 354 348 344 343 344 345 341 334 325 313 318 314 317
166 175 180 175 172 184 200 183 183 197 224 268 289 296 311 328 335 350 8 24 14 12 12 10 7 6 360 356 356 357 355 350 348 344 343 344 346 336 326 323 316 317 318
188 175 185 184 176 185 180 187 185 209 266 289 285 302 354 346 348 351 350 358 356 357 1 1 357 358 356 345 347 349 349 350 349 347 342 342 343 342 333 323 319 319 320
176 185 186 188 177 174 203 197 203 263 278 207 80 50 25 354 348 352 348 352 355 346 348 351 344 340 346 336 337 341 344 345 344 346 341 341 342 341 334 324 320 320 322
171 173 174 176 184 211 216 204 232 281 288 259 298 314 339 355 328 330 324 320 332 332 334 337 333 329 334 337 327 337 338 338 336 340 340 341 342 340 336 325 322 321 326
165 177 186 205 240 272 212 221 257 294 297 304 304 300 292 293 306 305 306 299 304 320 324 323 327 318 325 336 326 331 333 332 330 334 336 339 342 342 337 329 324 324 327
179 188 200 227 246 207 205 255 301 18 20 343 327 320 309 291 287 290 301 301 294 300 317 318 313 318 318 326 325 325 329 329 326 330 333 336 342 341 342 336 330 329 331
202 207 216 229 234 248 265 272 310 301 311 297 306 309 305 303 289 282 291 295 294 291 300 311 309 316 318 321 321 324 326 325 323 329 331 335 338 344 349 349 340 340 344
194 208 219 238 251 260 266 280 289 288 283 281 294 306 302 298 291 293 288 287 294 296 305 305 311 312 313 314 319 323 322 323 321 327 330 333 340 348 353 355 354 354 356
231 237 249 254 262 262 267 280 287 282 282 284 285 294 295 291 294 287 283 278 284 296 303 303 311 316 311 314 323 322 320 322 321 327 331 334 344 351 356 359 360 357 360
260 257 258 255 283 273 272 282 278 277 278 276 282 288 292 294 287 288 272 254 280 291 291 298 312 310 315 322 323 320 316 314 320 329 331 339 343 349 356 358 359 358 357
Wind_Speed_850mb
26 17 11 6 3 6 7 11 14 15 18 20 22 23 23 20 19 19 21 26 35 41 46 43 42 42 42 45 49 55 58 61 72 76 74 67 55 47 34 26 18 24 24
34 22 13 7 3 3 7 8 8 10 12 16 19 18 17 20 17 17 20 21 22 24 27 29 30 29 29 30 33 36 36 35 43 44 46 38 43 33 20 23 26 26 24
39 27 18 12 11 7 5 6 7 6 7 9 7 9 10 8 6 7 8 11 15 17 19 20 22 23 24 25 26 28 30 27 26 28 20 16 16 59 38 34 38 36 40
33 26 20 17 14 16 16 13 12 11 11 10 6 7 8 4 4 9 13 14 16 18 19 21 23 24 26 25 26 27 28 29 28 17 16 18 30 22 41 48 59 55 47
39 33 25 20 20 19 18 18 16 16 16 13 11 8 9 13 15 14 13 14 16 18 20 22 22 24 26 27 27 27 30 32 33 35 30 18 15 16 26 66 73 68 51
44 35 27 21 21 21 20 20 17 18 17 16 15 13 13 14 11 13 13 16 17 19 22 27 28 27 28 28 25 25 28 31 33 34 35 38 29 30 28 45 70 77 74
55 45 33 29 22 19 19 20 18 19 18 19 21 20 16 16 17 19 19 17 17 19 22 27 28 30 33 30 26 26 31 35 35 35 35 35 32 31 34 41 53 62 88
58 45 38 26 20 17 15 16 17 17 16 16 21 21 16 15 17 19 19 20 21 21 23 27 29 33 34 33 32 29 35 37 37 38 39 41 41 37 37 38 48 65 56
59 52 42 28 21 17 13 9 11 14 14 15 19 21 20 18 20 23 17 19 21 19 19 25 31 36 36 35 32 33 33 37 40 40 40 42 44 43 41 38 37 39 46
60 50 39 31 27 22 16 13 7 10 13 12 14 18 17 17 20 25 20 18 17 14 19 24 31 36 37 37 39 37 35 39 42 45 43 44 46 45 43 41 39 42 53
62 52 41 33 27 20 18 15 9 2 8 8 10 13 13 14 18 24 26 21 15 15 19 23 30 35 38 38 38 39 42 44 45 45 47 47 48 49 50 49 49 53 58
58 48 44 43 36 26 21 17 6 1 1 4 1 8 7 10 16 22 27 21 14 16 21 27 33 38 40 43 43 44 45 47 49 50 52 50 49 50 51 56 59 65 69
60 46 42 39 33 30 24 19 11 3 5 7 3 3 5 8 16 22 28 23 17 19 25 30 34 39 42 43 45 47 47 48 49 51 53 54 52 53 53 56 61 69 73
61 65 43 42 30 22 19 17 12 2 5 8 6 4 5 8 15 20 25 27 21 24 30 34 39 42 42 45 48 49 49 49 49 51 55 56 56 53 52 54 62 69 78
56 47 48 34 32 21 15 13 8 4 8 8 8 6 9 11 14 17 20 23 24 22 29 35 39 43 47 50 53 54 53 53 54 54 58 60 59 54 47 52 62 69 80
55 48 40 34 25 24 13 14 13 7 11 9 9 10 14 14 14 12 13 15 19 22 27 34 38 40 45 52 55 59 59 56 56 58 59 63 61 62 57 53 58 62 74
46 38 40 29 19 11 8 13 12 7 7 8 9 9 11 14 14 10 11 11 16 20 24 30 36 38 43 49 56 60 62 59 57 57 60 68 68 64 65 61 65 68 71
41 41 25 19 19 12 9 16 12 8 8 10 8 4 10 12 10 11 9 13 18 21 24 26 33 40 41 44 51 56 59 62 60 61 61 69 77 75 71 67 70 71 75
35 23 19 20 20 14 13 15 11 8 9 4 2 4 14 11 8 9 9 14 23 21 24 27 31 37 41 43 47 54 61 62 64 62 61 67 78 80 73 68 70 70 75
28 26 23 19 15 8 13 14 9 5 4 5 4 6 8 14 9 10 14 18 22 25 26 29 32 36 43 46 44 50 60 64 65 64 64 65 75 81 73 61 64 67 73
18 15 14 10 6 10 16 10 7 8 10 10 13 14 14 12 13 19 23 25 25 26 29 35 37 38 42 48 45 47 56 60 65 64 65 66 76 81 72 55 54 56 64
13 12 12 9 7 6 6 7 7 8 9 13 17 20 23 22 24 29 32 32 31 30 35 42 40 40 40 42 42 44 50 54 59 64 59 64 75 78 70 57 50 53 55
17 15 15 12 10 9 13 18 16 17 19 21 25 26 28 27 31 37 40 43 37 39 42 44 40 39 39 40 39 42 48 51 54 58 54 58 70 75 74 61 51 49 52
13 15 14 16 19 19 23 32 30 28 33 37 36 34 37 38 39 40 42 41 38 37 40 36 35 36 43 43 38 43 45 50 53 55 51 54 64 68 72 69 54 48 50
20 21 20 23 25 18 24 27 32 35 41 46 47 48 51 48 48 48 44 38 34 32 30 33 40 45 41 34 41 43 45 49 52 55 49 54 62 69 76 77 64 50 51
19 22 26 27 22 26 32 35 40 45 50 47 54 57 58 60 61 61 53 35 27 31 32 37 41 35 37 42 42 42 43 45 48 52 48 52 55 59 70 74 74 57 52
Wind_Direction_850mb
158 165 168 154 127 152 174 181 188 193 209 215 221 228 236 245 259 272 283 289 282 286 281 284 287 291 292 292 293 291 293 293 292 295 292 291 288 279 270 278 282 283 285
155 145 133 131 159 88 76 97 132 157 190 214 224 228 241 250 261 276 281 292 297 300 301 305 310 315 314 310 308 308 308 312 311 318 319 317 308 284 249 260 277 284 284
164 158 142 119 93 100 86 84 93 114 146 176 208 219 240 253 266 303 321 332 335 337 337 337 333 333 333 333 334 332 333 337 336 330 338 328 311 312 310 288 279 280 278
168 157 146 124 103 93 91 98 99 95 104 111 167 184 197 189 30 12 15 14 15 18 20 21 20 17 16 13 11 6 2 356 356 7 340 311 296 317 311 296 301 302 296
170 156 144 127 110 98 96 96 100 100 94 94 93 90 84 72 62 56 41 40 38 37 34 30 27 25 25 29 33 32 25 20 14 7 3 355 327 289 303 306 311 312 310
165 152 144 137 125 108 98 91 89 89 77 70 67 65 69 71 60 53 41 35 32 33 30 24 20 19 17 19 16 16 12 12 9 5 3 1 357 338 328 312 318 319 320
162 156 162 156 139 119 112 106 92 88 73 55 47 44 45 45 40 37 33 31 29 30 30 28 26 21 18 16 11 8 7 9 8 4 358 354 349 337 329 323 321 315 319
161 161 163 157 139 124 124 117 102 79 66 49 38 33 33 38 31 28 32 31 27 30 26 24 25 23 21 17 11 8 0 358 356 357 354 353 348 344 336 326 324 324 319
164 166 163 156 143 132 132 121 98 77 52 42 32 29 35 32 28 25 25 23 12 16 13 19 16 15 12 10 11 6 360 356 352 349 349 348 347 346 345 336 325 318 312
168 164 160 151 152 141 137 144 114 72 44 23 25 23 36 25 26 17 19 13 10 7 9 11 7 7 7 7 6 4 0 356 355 349 345 344 342 343 340 335 326 319 311
167 163 158 156 154 145 136 151 170 344 16 348 357 8 29 22 14 12 16 7 11 5 12 8 1 4 5 5 5 1 359 357 353 348 344 340 339 339 339 337 330 319 313
161 155 154 161 162 159 148 159 165 99 343 142 254 359 22 15 4 8 9 20 24 17 14 8 1 2 3 1 3 1 357 351 349 348 345 339 336 335 337 337 330 328 322
156 161 160 166 168 159 154 160 167 183 192 183 219 327 358 358 360 3 12 22 28 29 21 12 9 8 3 1 1 356 353 349 348 346 342 339 332 330 336 332 327 325 320
166 156 161 172 170 174 164 162 175 174 216 210 246 286 330 342 358 1 16 29 39 42 28 21 18 14 7 3 0 356 351 347 346 344 341 339 337 328 329 322 323 323 321
162 163 173 176 164 170 173 183 194 199 207 216 233 283 326 338 351 359 11 26 32 31 25 22 19 16 11 6 2 358 352 347 344 344 344 342 338 329 315 317 318 320 320
163 169 170 180 180 171 182 187 173 180 192 223 273 307 320 324 336 353 10 26 31 24 19 17 15 10 6 4 1 359 354 348 344 343 344 345 341 334 325 313 318 314 317
166 175 180 175 172 184 200 183 183 197 224 268 289 296 311 328 335 350 8 24 14 12 12 10 7 6 360 356 356 357 355 350 348 344 343 344 346 336 326 323 316 317 318
188 175 185 184 176 185 180 187 185 209 266 289 285 302 354 346 348 351 350 358 356 357 1 1 357 358 356 345 347 349 349 350 349 347 342 342 343 342 333 323 319 319 320
176 185 186 188 177 174 203 197 203 263 278 207 80 50 25 354 348 352 348 352 355 346 348 351 344 340 346 336 337 341 344 345 344 346 341 341 342 341 334 324 320 320 322
171 173 174 176 184 211 216 204 232 281 288 259 298 314 339 355 328 330 324 320 332 332 334 337 333 329 334 337 327 337 338 338 336 340 340 341 342 340 336 325 322 321 326
165 177 186 205 240 272 212 221 257 294 297 304 304 300 292 293 306 305 306 299 304 320 324 323 327 318 325 336 326 331 333 332 330 334 336 339 342 342 337 329 324 324 327
179 188 200 227 246 207 205 255 301 18 20 343 327 320 309 291 287 290 301 301 294 300 317 318 313 318 318 326 325 325 329 329 326 330 333 336 342 341 342 336 330 329 331
202 207 216 229 234 248 265 272 310 301 311 297 306 309 305 303 289 282 291 295 294 291 300 311 309 316 318 321 321 324 326 325 323 329 331 335 338 344 349 349 340 340 344
194 208 219 238 251 260 266 280 289 288 283 281 294 306 302 298 291 293 288 287 294 296 305 305 311 312 313 314 319 323 322 323 321 327 330 333 340 348 353 355 354 354 356
231 237 249 254 262 262 267 280 287 282 282 284 285 294 295 291 294 287 283 278 284 296 303 303 311 316 311 314 323 322 320 322 321 327 331 334 344 351 356 359 360 357 360
260 257 258 255 283 273 272 282 278 277 278 276 282 288 292 294 287 288 272 254 280 291 291 298 312 310 315 322 323 320 316 314 320 329 331 339 343 349 356 358 359 358 357